Gastonia, NC

4:06 AM EDT on July 22, 2017 (GMT -0400)
Gastonia Municipal

Weather History for KAKH - June, 2013

Change the Weather History Date:

Tuesday, June 18, 2013

  Actual Average (KCLT) Record (KCLT)
Temperature  
Mean Temperature 76 °F -  
Max Temperature 84 °F 85 °F 100 °F (2015)
Min Temperature 68 °F 66 °F 52 °F (1961)
Cooling Degree Days 11    
Growing Degree Days 26 (Base 50)    
Moisture  
Dew Point 70 °F    
Average Humidity 88    
Maximum Humidity 100    
Minimum Humidity 65    
Precipitation  
Precipitation 0.49 in - - ()
Sea Level Pressure  
Sea Level Pressure 29.89 in    
Wind  
Wind Speed 5 mph (SSW)    
Max Wind Speed 13 mph    
Max Gust Speed 29 mph    
Visibility 8 miles    
Events Rain , Thunderstorm    
Averages and records for this station are not official NWS values.
T = Trace of Precipitation, MM = Missing Value Source: NWS Daily Summary

Daily Weather History Graph

Daily Weather History Graph

Search for Another Location

Airport or City:

Trip Planner

Search our weather history database for the weather conditions in past years. The results will help you decide how hot, cold, wet, or windy it might be!

Date:

Astronomy

Jun. 18, 2013 Rise Set
Actual Time 6:09 AM EDT 8:41 PM EDT
Civil Twilight 5:40 AM EDT 9:11 PM EDT
Nautical Twilight 5:03 AM EDT 9:48 PM EDT
Astronomical Twilight 4:22 AM EDT 10:29 PM EDT
Moon 3:32 PM EDT (6/18) 2:07 AM EDT (6/18)
Length of Visible Light 15h 31m
Length of Day
14h 31m
Waxing Gibbous, 70% of the Moon is Illuminated
Jun 18
Waxing Gibbous
Jun 23
Full
Jun 30
Last Quarter
Jul 8
New
Jul 15
First Quarter

Hourly Weather History & Observations

Time (EDT) Temp. Heat Index Dew Point Humidity Pressure Visibility Wind Dir Wind Speed Gust Speed Precip Events Conditions
12:24 AM 69.8 °F - 69.8 °F 100% 29.99 in 4.0 mi SSW 4.6 mph - 0.01 in Rain , Thunderstorm Light Rain
12:44 AM 69.8 °F - 69.8 °F 100% 29.97 in 4.0 mi South 5.8 mph - 0.03 in Rain Light Rain
12:52 AM 69.8 °F - 69.8 °F 100% 29.97 in 5.0 mi SSW 5.8 mph - 0.04 in Rain Light Rain
12:53 AM 70.0 °F - 69.1 °F 97% 29.95 in 5.0 mi SSW 5.8 mph - 0.04 in Rain Light Rain
1:50 AM 69.8 °F - 69.8 °F 100% 29.96 in 7.0 mi SSW 5.8 mph - 0.01 in   Mostly Cloudy
1:51 AM 69.8 °F - 69.8 °F 100% 29.96 in 6.0 mi SSW 6.9 mph - 0.01 in   Mostly Cloudy
1:54 AM 70.0 °F - 70.0 °F 100% 29.93 in 6.0 mi SSW 5.8 mph - 0.01 in   Mostly Cloudy
2:29 AM 71.6 °F - 69.8 °F 94% 29.94 in 8.0 mi SSW 5.8 mph - N/A   Overcast
2:54 AM 70.0 °F - 70.0 °F 100% 29.91 in 8.0 mi SSW 4.6 mph - N/A   Overcast
3:54 AM 71.1 °F - 70.0 °F 96% 29.89 in 8.0 mi SW 5.8 mph - N/A   Overcast
4:05 AM 71.6 °F - 69.8 °F 94% 29.91 in 8.0 mi Variable 3.5 mph - N/A   Overcast
4:54 AM 70.0 °F - 70.0 °F 100% 29.90 in 9.0 mi SSW 4.6 mph - N/A   Overcast
5:54 AM 70.0 °F - 70.0 °F 100% 29.91 in 6.0 mi Variable 3.5 mph - N/A   Overcast
6:54 AM 71.1 °F - 70.0 °F 96% 29.92 in 6.0 mi Calm Calm - N/A   Overcast
7:54 AM 71.1 °F - 70.0 °F 96% 29.92 in 6.0 mi Variable 3.5 mph - N/A   Overcast
8:54 AM 72.0 °F - 70.0 °F 93% 29.92 in 6.0 mi Variable 4.6 mph - N/A   Overcast
9:36 AM 73.4 °F - 71.6 °F 94% 29.94 in 10.0 mi Variable 5.8 mph - N/A   Mostly Cloudy
9:54 AM 75.0 °F - 71.1 °F 87% 29.92 in 10.0 mi SSW 9.2 mph - N/A   Mostly Cloudy
10:20 AM 75.2 °F - 69.8 °F 83% 29.93 in 10.0 mi SW 8.1 mph 16.1 mph N/A   Scattered Clouds
10:54 AM 77.0 °F - 70.0 °F 79% 29.91 in 10.0 mi Variable 6.9 mph - N/A   Mostly Cloudy
11:15 AM 75.2 °F - 69.8 °F 83% 29.92 in 10.0 mi SW 8.1 mph 16.1 mph N/A   Mostly Cloudy
11:50 AM 73.4 °F - 69.8 °F 88% 29.92 in 6.0 mi Variable 6.9 mph - 0.01 in Rain Light Rain
11:54 AM 73.0 °F - 69.1 °F 87% 29.90 in 7.0 mi Variable 4.6 mph - 0.01 in Rain Light Rain
12:52 PM 75.2 °F - 71.6 °F 89% 29.89 in 10.0 mi South 6.9 mph - 0.00 in   Mostly Cloudy
12:54 PM 75.9 °F - 71.1 °F 85% 29.87 in 10.0 mi SSW 5.8 mph - 0.00 in   Mostly Cloudy
1:18 PM 78.8 °F - 71.6 °F 78% 29.88 in 10.0 mi SSW 10.4 mph - N/A   Partly Cloudy
1:47 PM 78.8 °F - 69.8 °F 74% 29.88 in 10.0 mi SW 8.1 mph - N/A   Mostly Cloudy
1:54 PM 79.0 °F - 69.1 °F 72% 29.86 in 10.0 mi Variable 5.8 mph 17.3 mph N/A   Mostly Cloudy
2:54 PM 82.9 °F 87.5 °F 71.1 °F 67% 29.83 in 10.0 mi Variable 6.9 mph - N/A   Partly Cloudy
3:54 PM 82.9 °F 87.0 °F 70.0 °F 65% 29.82 in 10.0 mi SW 9.2 mph 20.7 mph N/A   Scattered Clouds
4:54 PM 84.0 °F 89.0 °F 71.1 °F 65% 29.81 in 10.0 mi Variable 4.6 mph 18.4 mph N/A   Mostly Cloudy
5:15 PM 80.6 °F 83.9 °F 69.8 °F 70% 29.82 in 10.0 mi SSW 8.1 mph 16.1 mph N/A Thunderstorm Overcast
5:47 PM 80.6 °F 83.9 °F 69.8 °F 70% 29.82 in 10.0 mi Variable 5.8 mph - N/A   Overcast
5:54 PM 80.1 °F 83.2 °F 70.0 °F 71% 29.79 in 10.0 mi SSW 5.8 mph - N/A   Overcast
6:05 PM 78.8 °F - 69.8 °F 74% 29.82 in 10.0 mi SW 5.8 mph - N/A Thunderstorm Thunderstorm
6:10 PM 77.0 °F - 69.8 °F 78% 29.85 in 1.2 mi WNW 12.7 mph 28.8 mph 0.11 in Thunderstorm Unknown
6:17 PM 71.6 °F - 64.4 °F 78% 29.85 in 0.5 mi Variable 5.8 mph 28.8 mph 0.19 in Rain , Thunderstorm Thunderstorms and Rain
6:39 PM 68.0 °F - 66.2 °F 94% 29.83 in 1.0 mi SSW 3.5 mph - 0.40 in Rain , Thunderstorm Heavy Thunderstorms and Rain
6:46 PM 68.0 °F - 68.0 °F 100% 29.84 in 4.0 mi South 6.9 mph - 0.40 in Rain , Thunderstorm Light Rain
6:54 PM 68.0 °F - 68.0 °F 100% 29.82 in 5.0 mi Variable 3.5 mph - 0.40 in Rain Light Rain
7:54 PM 73.0 °F - 71.1 °F 93% 29.82 in 10.0 mi Calm Calm - 0.03 in   Clear
8:54 PM 73.0 °F - 71.1 °F 93% 29.84 in 10.0 mi Calm Calm - N/A   Overcast
9:54 PM 71.1 °F - 70.0 °F 96% 29.87 in 8.0 mi Calm Calm - N/A   Mostly Cloudy
10:54 PM 71.1 °F - 70.0 °F 96% 29.89 in 9.0 mi Calm Calm - N/A   Partly Cloudy
11:54 PM 71.1 °F - 69.1 °F 93% 29.91 in 10.0 mi Calm Calm - N/A   Scattered Clouds